Time,TemperatureF,DewpointF,PressureIn,WindDirection,WindDirectionDegrees,WindSpeedMPH,WindSpeedGustMPH,Humidity,HourlyPrecipIn,Conditions,Clouds,dailyrainin,SoftwareType,DateUTC
2013-05-16 00:00:00,76.7,60.3,29.87,SE,135,0.2,0.2,57,0.00,,,0.00,WUHU216HW,2013-05-16 04:00:00,
2013-05-16 00:01:00,76.7,60.3,29.87,SE,135,0.2,0.2,57,0.00,,,0.00,WUHU216HW,2013-05-16 04:01:00,
2013-05-16 00:06:00,76.7,60.3,29.87,SE,135,0.2,0.2,57,0.00,,,0.00,WUHU216HW,2013-05-16 04:06:00,
2013-05-16 00:30:00,75.6,60.3,29.87,SW,225,0.0,0.0,59,0.00,,,0.00,WUHU216HW,2013-05-16 04:30:00,
2013-05-16 00:35:00,75.6,60.3,29.87,SW,225,0.0,0.0,59,0.00,,,0.00,WUHU216HW,2013-05-16 04:35:00,
2013-05-16 00:59:00,74.5,60.2,29.87,SE,135,0.4,0.4,61,0.00,,,0.00,WUHU216HW,2013-05-16 04:59:00,
2013-05-16 01:04:00,74.5,60.2,29.87,SE,135,0.4,0.4,61,0.00,,,0.00,WUHU216HW,2013-05-16 05:04:00,
2013-05-16 01:29:00,73.4,60.0,29.87,East,90,0.0,0.0,63,0.00,,,0.00,WUHU216HW,2013-05-16 05:29:00,
2013-05-16 01:34:00,73.4,60.0,29.87,East,90,0.0,0.0,63,0.00,,,0.00,WUHU216HW,2013-05-16 05:34:00,
2013-05-16 01:59:00,72.9,59.9,29.86,SSE,158,0.0,0.0,64,0.00,,,0.00,WUHU216HW,2013-05-16 05:59:00,
2013-05-16 02:04:00,72.9,59.9,29.86,SSE,158,0.0,0.0,64,0.00,,,0.00,WUHU216HW,2013-05-16 06:04:00,
2013-05-16 02:30:00,71.6,59.7,29.85,SSW,203,0.0,0.0,66,0.00,,,0.00,WUHU216HW,2013-05-16 06:30:00,
2013-05-16 02:35:00,71.6,59.7,29.85,SSW,203,0.0,0.0,66,0.00,,,0.00,WUHU216HW,2013-05-16 06:35:00,
2013-05-16 02:59:00,70.9,59.4,29.85,West,270,0.2,0.2,67,0.00,,,0.00,WUHU216HW,2013-05-16 06:59:00,
2013-05-16 03:04:00,70.9,59.4,29.85,West,270,0.2,0.2,67,0.00,,,0.00,WUHU216HW,2013-05-16 07:04:00,
2013-05-16 06:00:00,67.7,58.8,29.86,SSW,203,0.0,0.0,73,0.00,,,0.00,WUHU216HW,2013-05-16 10:00:00,
2013-05-16 06:05:00,67.7,58.8,29.86,SSW,203,0.0,0.0,73,0.00,,,0.00,WUHU216HW,2013-05-16 10:05:00,
2013-05-16 06:10:00,67.7,58.8,29.86,SSW,203,0.0,0.0,73,0.00,,,0.00,WUHU216HW,2013-05-16 10:10:00,
2013-05-16 06:30:00,67.3,58.8,29.87,SSW,203,0.0,0.0,74,0.00,,,0.00,WUHU216HW,2013-05-16 10:30:00,
2013-05-16 06:35:00,67.3,58.8,29.87,SSW,203,0.0,0.0,74,0.00,,,0.00,WUHU216HW,2013-05-16 10:35:00,
2013-05-16 07:00:00,67.0,58.8,29.88,SE,135,0.0,0.0,75,0.00,,,0.00,WUHU216HW,2013-05-16 11:00:00,
2013-05-16 07:05:00,67.0,58.8,29.88,SE,135,0.0,0.0,75,0.00,,,0.00,WUHU216HW,2013-05-16 11:05:00,
2013-05-16 07:30:00,67.1,59.3,29.89,SSW,203,0.0,0.0,76,0.00,,,0.00,WUHU216HW,2013-05-16 11:30:00,
2013-05-16 07:35:00,67.1,59.3,29.89,SSW,203,0.0,0.0,76,0.00,,,0.00,WUHU216HW,2013-05-16 11:35:00,
2013-05-16 08:00:00,68.0,59.9,29.89,West,270,0.4,0.4,75,0.00,,,0.00,WUHU216HW,2013-05-16 12:00:00,
2013-05-16 08:05:00,68.0,59.9,29.89,West,270,0.4,0.4,75,0.00,,,0.00,WUHU216HW,2013-05-16 12:05:00,
2013-05-16 08:30:00,69.8,60.8,29.90,West,270,0.4,0.4,73,0.00,,,0.00,WUHU216HW,2013-05-16 12:30:00,
2013-05-16 08:35:00,69.8,60.8,29.90,West,270,0.4,0.4,73,0.00,,,0.00,WUHU216HW,2013-05-16 12:35:00,
2013-05-16 09:00:00,71.3,61.0,29.91,WNW,293,0.9,0.9,70,0.00,,,0.00,WUHU216HW,2013-05-16 13:00:00,
2013-05-16 09:05:00,71.3,61.0,29.91,WNW,293,0.9,0.9,70,0.00,,,0.00,WUHU216HW,2013-05-16 13:05:00,
2013-05-16 09:30:00,72.9,61.3,29.91,North,0,1.1,1.1,67,0.00,,,0.00,WUHU216HW,2013-05-16 13:30:00,
2013-05-16 09:35:00,72.9,61.3,29.91,North,0,1.1,1.1,67,0.00,,,0.00,WUHU216HW,2013-05-16 13:35:00,
2013-05-16 10:00:00,75.1,61.6,29.91,WNW,293,0.4,0.4,63,0.00,,,0.00,WUHU216HW,2013-05-16 14:00:00,
2013-05-16 10:05:00,75.1,61.6,29.91,WNW,293,0.4,0.4,63,0.00,,,0.00,WUHU216HW,2013-05-16 14:05:00,
2013-05-16 10:30:00,77.0,61.1,29.92,East,90,0.2,0.2,58,0.00,,,0.00,WUHU216HW,2013-05-16 14:30:00,
2013-05-16 10:35:00,77.0,61.1,29.92,East,90,0.2,0.2,58,0.00,,,0.00,WUHU216HW,2013-05-16 14:35:00,
2013-05-16 11:00:00,78.3,61.3,29.92,SSW,203,1.1,1.1,56,0.00,,,0.00,WUHU216HW,2013-05-16 15:00:00,
2013-05-16 11:05:00,78.3,61.3,29.92,SSW,203,1.1,1.1,56,0.00,,,0.00,WUHU216HW,2013-05-16 15:05:00,
2013-05-16 11:30:00,79.6,60.9,29.93,SSW,203,0.4,0.4,53,0.00,,,0.00,WUHU216HW,2013-05-16 15:30:00,
2013-05-16 11:35:00,79.6,60.9,29.93,SSW,203,0.4,0.4,53,0.00,,,0.00,WUHU216HW,2013-05-16 15:35:00,
2013-05-16 12:00:00,80.6,60.9,29.92,West,270,1.1,1.1,51,0.00,,,0.00,WUHU216HW,2013-05-16 16:00:00,
2013-05-16 12:05:00,80.6,60.9,29.92,West,270,1.1,1.1,51,0.00,,,0.00,WUHU216HW,2013-05-16 16:05:00,
2013-05-16 12:30:00,81.4,60.3,29.92,West,270,0.2,0.2,49,0.00,,,0.00,WUHU216HW,2013-05-16 16:30:00,
2013-05-16 12:35:00,81.4,60.3,29.92,West,270,0.2,0.2,49,0.00,,,0.00,WUHU216HW,2013-05-16 16:35:00,
2013-05-16 13:00:00,82.6,60.8,29.91,WSW,248,1.8,1.8,48,0.00,,,0.00,WUHU216HW,2013-05-16 17:00:00,
2013-05-16 13:05:00,82.6,60.8,29.91,WSW,248,1.8,1.8,48,0.00,,,0.00,WUHU216HW,2013-05-16 17:05:00,
2013-05-16 13:30:00,83.7,61.3,29.90,SW,225,0.4,0.4,47,0.00,,,0.00,WUHU216HW,2013-05-16 17:30:00,
2013-05-16 13:35:00,83.7,61.3,29.90,SW,225,0.4,0.4,47,0.00,,,0.00,WUHU216HW,2013-05-16 17:35:00,
2013-05-16 14:00:00,85.5,63.0,29.90,SE,135,2.2,2.2,47,0.00,,,0.00,WUHU216HW,2013-05-16 18:00:00,
2013-05-16 14:05:00,85.5,63.0,29.90,SE,135,2.2,2.2,47,0.00,,,0.00,WUHU216HW,2013-05-16 18:05:00,
2013-05-16 14:30:00,86.4,61.3,29.89,WNW,293,0.7,0.7,43,0.00,,,0.00,WUHU216HW,2013-05-16 18:30:00,
2013-05-16 14:35:00,86.4,61.3,29.89,WNW,293,0.7,0.7,43,0.00,,,0.00,WUHU216HW,2013-05-16 18:35:00,
2013-05-16 15:00:00,87.1,60.7,29.89,West,270,2.9,2.9,41,0.00,,,0.00,WUHU216HW,2013-05-16 19:00:00,
2013-05-16 15:05:00,87.1,60.7,29.89,West,270,2.9,2.9,41,0.00,,,0.00,WUHU216HW,2013-05-16 19:05:00,
2013-05-16 15:30:00,86.8,60.9,29.87,South,180,0.7,0.7,42,0.00,,,0.00,WUHU216HW,2013-05-16 19:30:00,
2013-05-16 15:35:00,86.8,60.9,29.87,South,180,0.7,0.7,42,0.00,,,0.00,WUHU216HW,2013-05-16 19:35:00,
2013-05-16 16:00:00,87.1,61.3,29.87,SSW,203,0.2,0.2,42,0.00,,,0.00,WUHU216HW,2013-05-16 20:00:00,
2013-05-16 16:05:00,87.1,61.3,29.87,SSW,203,0.2,0.2,42,0.00,,,0.00,WUHU216HW,2013-05-16 20:05:00,
2013-05-16 16:30:00,87.3,59.4,29.87,ESE,113,0.9,0.9,39,0.00,,,0.00,WUHU216HW,2013-05-16 20:30:00,
2013-05-16 16:35:00,87.3,59.4,29.87,ESE,113,0.9,0.9,39,0.00,,,0.00,WUHU216HW,2013-05-16 20:35:00,
2013-05-16 17:00:00,86.0,58.2,29.87,West,270,1.3,1.3,39,0.00,,,0.00,WUHU216HW,2013-05-16 21:00:00,
2013-05-16 17:05:00,86.0,58.2,29.87,West,270,1.3,1.3,39,0.00,,,0.00,WUHU216HW,2013-05-16 21:05:00,
2013-05-16 17:30:00,85.1,58.2,29.87,West,270,0.4,0.4,40,0.00,,,0.00,WUHU216HW,2013-05-16 21:30:00,
2013-05-16 17:35:00,85.1,58.2,29.87,West,270,0.4,0.4,40,0.00,,,0.00,WUHU216HW,2013-05-16 21:35:00,
2013-05-16 18:00:00,84.2,58.7,29.87,SW,225,2.9,2.9,42,0.00,,,0.00,WUHU216HW,2013-05-16 22:00:00,
2013-05-16 18:05:00,84.2,58.7,29.87,SW,225,2.9,2.9,42,0.00,,,0.00,WUHU216HW,2013-05-16 22:05:00,
2013-05-16 18:30:00,83.7,58.8,29.88,WSW,248,0.0,0.0,43,0.00,,,0.00,WUHU216HW,2013-05-16 22:30:00,
2013-05-16 18:35:00,83.7,58.8,29.88,WSW,248,0.0,0.0,43,0.00,,,0.00,WUHU216HW,2013-05-16 22:35:00,
2013-05-16 19:00:00,83.0,59.4,29.87,SW,225,0.7,0.7,45,0.00,,,0.00,WUHU216HW,2013-05-16 23:00:00,
2013-05-16 19:05:00,83.0,59.4,29.87,SW,225,0.7,0.7,45,0.00,,,0.00,WUHU216HW,2013-05-16 23:05:00,
2013-05-16 19:30:00,82.3,59.3,29.88,WSW,248,0.0,0.0,46,0.00,,,0.00,WUHU216HW,2013-05-16 23:30:00,
2013-05-16 19:35:00,82.3,59.3,29.88,WSW,248,0.0,0.0,46,0.00,,,0.00,WUHU216HW,2013-05-16 23:35:00,
2013-05-16 20:00:00,81.4,59.1,29.89,WSW,248,0.0,0.0,47,0.00,,,0.00,WUHU216HW,2013-05-17 00:00:00,
2013-05-16 20:05:00,81.4,59.1,29.89,WSW,248,0.0,0.0,47,0.00,,,0.00,WUHU216HW,2013-05-17 00:05:00,
2013-05-16 20:30:00,79.9,59.7,29.89,South,180,0.0,0.0,50,0.00,,,0.00,WUHU216HW,2013-05-17 00:30:00,
2013-05-16 20:35:00,79.9,59.7,29.89,South,180,0.0,0.0,50,0.00,,,0.00,WUHU216HW,2013-05-17 00:35:00,
2013-05-16 21:00:00,78.8,59.2,29.90,SW,225,0.0,0.0,51,0.00,,,0.00,WUHU216HW,2013-05-17 01:00:00,
2013-05-16 21:05:00,78.8,59.2,29.90,SW,225,0.0,0.0,51,0.00,,,0.00,WUHU216HW,2013-05-17 01:05:00,
2013-05-16 21:30:00,77.9,59.4,29.91,WSW,248,0.4,0.4,53,0.00,,,0.00,WUHU216HW,2013-05-17 01:30:00,
2013-05-16 21:35:00,77.9,59.4,29.91,WSW,248,0.4,0.4,53,0.00,,,0.00,WUHU216HW,2013-05-17 01:35:00,
2013-05-16 22:00:00,77.4,59.4,29.92,WSW,248,0.4,0.4,54,0.00,,,0.00,WUHU216HW,2013-05-17 02:00:00,
2013-05-16 22:05:00,77.4,59.4,29.92,WSW,248,0.4,0.4,54,0.00,,,0.00,WUHU216HW,2013-05-17 02:05:00,
2013-05-16 22:30:00,76.9,60.0,29.92,WSW,248,0.0,0.0,56,0.00,,,0.00,WUHU216HW,2013-05-17 02:30:00,
2013-05-16 22:35:00,76.9,60.0,29.92,WSW,248,0.0,0.0,56,0.00,,,0.00,WUHU216HW,2013-05-17 02:35:00,
2013-05-16 23:00:00,76.5,60.1,29.92,WSW,248,0.7,0.7,57,0.00,,,0.00,WUHU216HW,2013-05-17 03:00:00,
2013-05-16 23:05:00,76.5,60.1,29.92,WSW,248,0.7,0.7,57,0.00,,,0.00,WUHU216HW,2013-05-17 03:05:00,
2013-05-16 23:30:00,75.6,60.3,29.92,WSW,248,0.4,0.4,59,0.00,,,0.00,WUHU216HW,2013-05-17 03:30:00,
2013-05-16 23:35:00,75.6,60.3,29.92,WSW,248,0.4,0.4,59,0.00,,,0.00,WUHU216HW,2013-05-17 03:35:00,